Location: Ehrke Reservoir
(40.0279°N, 99.6641°W)
Time: 09:37:57
(UTC+00:00)

BREEZE-M DEB (TANK) - Pass Details

Date: 20 January 2020
Orbit: 358 x 14911 km, 49.5° (Epoch: 16 February)

Event Time Altitude Azimuth Distance (km) Brightness Sun altitude
Rises 01:22:05 0° 221° (SW) 4,235 8.7 -19.0°
Reaches altitude 10° 01:26:04 10° 214° (SW) 2,291 7.1 -19.7°
Enters shadow 01:29:43 35° 161° (SSE) 752 3.9 -20.4°
